Time,TemperatureF,DewpointF,PressureIn,WindDirection,WindDirectionDegrees,WindSpeedMPH,WindSpeedGustMPH,Humidity,HourlyPrecipIn,Conditions,Clouds,dailyrainin,SoftwareType,DateUTC
2013-05-14 08:43:00,47.0,40.0,30.12,North,-999,-999.0,-999.0,77,0.00,,,0.35,,2013-05-14 15:43:00,
2013-05-14 08:53:00,47.0,40.0,30.12,North,-999,-999.0,-999.0,77,0.00,,,0.35,,2013-05-14 15:53:00,
2013-05-14 09:02:00,48.0,40.0,30.12,North,-999,-999.0,-999.0,75,0.00,,,0.35,,2013-05-14 16:02:00,
2013-05-14 09:12:00,48.0,40.0,30.12,North,-999,-999.0,-999.0,75,0.00,,,0.35,,2013-05-14 16:12:00,
2013-05-14 09:23:00,50.0,41.0,30.12,North,-999,-999.0,-999.0,72,0.00,,,0.35,,2013-05-14 16:23:00,
2013-05-14 09:33:00,50.0,41.0,30.11,North,-999,-999.0,-999.0,71,0.00,,,0.35,,2013-05-14 16:33:00,
2013-05-14 09:43:00,50.0,41.0,30.11,North,-999,-999.0,-999.0,71,0.00,,,0.35,,2013-05-14 16:43:00,
2013-05-14 09:54:00,50.0,41.0,30.11,North,-999,-999.0,-999.0,71,0.00,,,0.35,,2013-05-14 16:54:00,
2013-05-14 10:03:00,52.0,42.0,30.10,North,-999,-999.0,-999.0,68,0.00,,,0.35,,2013-05-14 17:03:00,
2013-05-14 10:10:00,53.0,41.0,30.11,North,-999,-999.0,-999.0,64,0.00,,,0.35,,2013-05-14 17:10:00,
2013-05-14 10:13:00,52.0,42.0,30.10,North,-999,-999.0,-999.0,68,0.00,,,0.35,,2013-05-14 17:13:00,
2013-05-14 10:24:00,52.0,41.0,30.10,North,-999,-999.0,-999.0,66,0.00,,,0.35,,2013-05-14 17:24:00,
2013-05-14 10:32:00,53.0,41.0,30.11,North,-999,-999.0,-999.0,64,0.00,,,0.35,,2013-05-14 17:32:00,
2013-05-14 10:43:00,53.0,41.0,30.11,North,-999,-999.0,-999.0,64,0.00,,,0.35,,2013-05-14 17:43:00,
2013-05-14 10:52:00,53.0,41.0,30.11,North,-999,-999.0,-999.0,64,0.00,,,0.35,,2013-05-14 17:52:00,
2013-05-14 11:01:00,53.0,41.0,30.11,North,-999,-999.0,-999.0,64,0.00,,,0.35,,2013-05-14 18:01:00,
2013-05-14 13:02:00,57.0,39.0,30.09,North,-999,-999.0,-999.0,50,0.00,,,0.20,,2013-05-14 20:02:00,
2013-05-14 13:11:00,57.0,39.0,30.09,North,-999,-999.0,-999.0,50,0.00,,,0.20,,2013-05-14 20:11:00,
2013-05-14 13:22:00,57.0,39.0,30.09,North,-999,-999.0,-999.0,50,0.00,,,0.13,,2013-05-14 20:22:00,
2013-05-14 13:32:00,57.0,38.0,30.09,North,-999,-999.0,-999.0,48,0.00,,,0.13,,2013-05-14 20:32:00,
2013-05-14 13:44:00,57.0,38.0,30.09,North,-999,-999.0,-999.0,48,0.00,,,0.13,,2013-05-14 20:44:00,
2013-05-14 13:52:00,58.0,39.0,30.09,North,-999,-999.0,-999.0,49,0.00,,,0.13,,2013-05-14 20:52:00,
2013-05-14 14:03:00,58.0,38.0,30.08,North,-999,-999.0,-999.0,48,0.00,,,0.13,,2013-05-14 21:03:00,
2013-05-14 14:12:00,58.0,38.0,30.08,North,-999,-999.0,-999.0,48,0.00,,,0.13,,2013-05-14 21:12:00,
2013-05-14 14:22:00,58.0,38.0,30.08,North,-999,-999.0,-999.0,48,0.00,,,0.13,,2013-05-14 21:22:00,
2013-05-14 14:33:00,58.0,38.0,30.08,North,-999,-999.0,-999.0,48,0.00,,,0.13,,2013-05-14 21:33:00,
2013-05-14 14:40:00,58.0,38.0,30.07,North,-999,-999.0,-999.0,47,0.00,,,0.05,,2013-05-14 21:40:00,
2013-05-14 14:42:00,58.0,38.0,30.08,North,-999,-999.0,-999.0,48,0.00,,,0.13,,2013-05-14 21:42:00,
2013-05-14 14:53:00,58.0,38.0,30.08,North,-999,-999.0,-999.0,48,0.00,,,0.13,,2013-05-14 21:53:00,
2013-05-14 15:03:00,58.0,38.0,30.07,North,-999,-999.0,-999.0,47,0.00,,,0.05,,2013-05-14 22:03:00,
2013-05-14 15:13:00,58.0,38.0,30.07,North,-999,-999.0,-999.0,47,0.00,,,0.05,,2013-05-14 22:13:00,
2013-05-14 15:24:00,58.0,38.0,30.07,North,-999,-999.0,-999.0,47,0.00,,,0.05,,2013-05-14 22:24:00,
2013-05-14 15:34:00,58.0,38.0,30.07,North,-999,-999.0,-999.0,47,0.00,,,0.05,,2013-05-14 22:34:00,
2013-05-14 16:03:00,58.0,37.0,30.05,North,-999,-999.0,-999.0,46,0.00,,,0.03,,2013-05-14 23:03:00,
2013-05-14 16:12:00,58.0,37.0,30.05,North,-999,-999.0,-999.0,46,0.00,,,0.03,,2013-05-14 23:12:00,
2013-05-14 16:21:00,58.0,37.0,30.05,North,-999,-999.0,-999.0,45,0.00,,,0.03,,2013-05-14 23:21:00,
2013-05-14 16:31:00,58.0,37.0,30.05,North,-999,-999.0,-999.0,46,0.00,,,0.03,,2013-05-14 23:31:00,
2013-05-14 16:44:00,58.0,37.0,30.05,North,-999,-999.0,-999.0,46,0.00,,,0.03,,2013-05-14 23:44:00,
2013-05-14 16:52:00,59.0,37.0,30.05,North,-999,-999.0,-999.0,44,0.00,,,0.03,,2013-05-14 23:52:00,
2013-05-14 17:01:00,59.0,36.0,30.05,North,-999,-999.0,-999.0,42,0.00,,,0.03,,2013-05-15 00:01:00,
2013-05-14 17:11:00,59.0,36.0,30.05,North,-999,-999.0,-999.0,42,0.00,,,0.03,,2013-05-15 00:11:00,
2013-05-14 17:21:00,59.0,36.0,30.04,North,-999,-999.0,-999.0,42,0.00,,,0.03,,2013-05-15 00:21:00,
2013-05-14 17:32:00,59.0,35.0,30.04,North,-999,-999.0,-999.0,41,0.00,,,0.03,,2013-05-15 00:32:00,
2013-05-14 17:41:00,59.0,35.0,30.04,North,-999,-999.0,-999.0,41,0.00,,,0.03,,2013-05-15 00:41:00,
2013-05-14 17:51:00,59.0,35.0,30.04,North,-999,-999.0,-999.0,41,0.00,,,0.03,,2013-05-15 00:51:00,
2013-05-14 18:01:00,57.0,36.0,30.03,North,-999,-999.0,-999.0,45,0.00,,,0.03,,2013-05-15 01:01:00,
2013-05-14 18:31:00,56.0,36.0,30.03,North,-999,-999.0,-999.0,46,0.00,,,0.03,,2013-05-15 01:31:00,
2013-05-14 18:42:00,56.0,36.0,30.03,North,-999,-999.0,-999.0,46,0.00,,,0.03,,2013-05-15 01:42:00,
2013-05-14 18:52:00,56.0,36.0,30.03,North,-999,-999.0,-999.0,47,0.00,,,0.03,,2013-05-15 01:52:00,
2013-05-14 19:01:00,55.0,35.0,30.03,North,-999,-999.0,-999.0,47,0.00,,,0.03,,2013-05-15 02:01:00,
2013-05-14 19:11:00,55.0,35.0,30.03,North,-999,-999.0,-999.0,47,0.00,,,0.03,,2013-05-15 02:11:00,
2013-05-14 19:21:00,54.0,35.0,30.02,North,-999,-999.0,-999.0,48,0.00,,,0.00,,2013-05-15 02:21:00,
2013-05-14 19:31:00,54.0,36.0,30.03,North,-999,-999.0,-999.0,50,0.00,,,0.00,,2013-05-15 02:31:00,
2013-05-14 19:41:00,54.0,36.0,30.03,North,-999,-999.0,-999.0,50,0.00,,,0.00,,2013-05-15 02:41:00,
2013-05-14 19:52:00,53.0,36.0,30.03,North,-999,-999.0,-999.0,52,0.00,,,0.00,,2013-05-15 02:52:00,
2013-05-14 20:01:00,53.0,36.0,30.02,North,-999,-999.0,-999.0,52,0.00,,,0.00,,2013-05-15 03:01:00,
2013-05-14 20:21:00,53.0,36.0,30.02,North,-999,-999.0,-999.0,52,0.00,,,0.00,,2013-05-15 03:21:00,
2013-05-14 20:33:00,52.0,35.0,30.03,North,-999,-999.0,-999.0,53,0.04,,,0.04,,2013-05-15 03:33:00,
2013-05-14 20:44:00,52.0,35.0,30.03,North,-999,-999.0,-999.0,53,0.04,,,0.04,,2013-05-15 03:44:00,
2013-05-14 20:54:00,52.0,35.0,30.03,North,-999,-999.0,-999.0,53,0.04,,,0.04,,2013-05-15 03:54:00,
2013-05-14 21:03:00,52.0,35.0,30.03,North,-999,-999.0,-999.0,53,0.04,,,0.04,,2013-05-15 04:03:00,
2013-05-14 21:12:00,52.0,35.0,30.03,North,-999,-999.0,-999.0,53,0.04,,,0.04,,2013-05-15 04:12:00,
2013-05-14 21:23:00,50.0,34.0,30.04,North,-999,-999.0,-999.0,54,0.00,,,0.04,,2013-05-15 04:23:00,
2013-05-14 21:32:00,50.0,34.0,30.04,North,-999,-999.0,-999.0,55,0.00,,,0.04,,2013-05-15 04:32:00,
2013-05-14 21:43:00,50.0,34.0,30.04,North,-999,-999.0,-999.0,55,0.00,,,0.04,,2013-05-15 04:43:00,
2013-05-14 21:52:00,50.0,35.0,30.05,North,-999,-999.0,-999.0,56,0.00,,,0.04,,2013-05-15 04:52:00,
2013-05-14 22:02:00,49.0,34.0,30.04,North,-999,-999.0,-999.0,57,0.00,,,0.04,,2013-05-15 05:02:00,
2013-05-14 22:11:00,49.0,34.0,30.04,North,-999,-999.0,-999.0,57,0.00,,,0.04,,2013-05-15 05:11:00,
2013-05-14 22:22:00,48.0,34.0,30.05,North,-999,-999.0,-999.0,59,0.00,,,0.04,,2013-05-15 05:22:00,
2013-05-14 22:32:00,48.0,35.0,30.05,North,-999,-999.0,-999.0,60,0.00,,,0.04,,2013-05-15 05:32:00,
2013-05-14 22:42:00,48.0,35.0,30.05,North,-999,-999.0,-999.0,60,0.00,,,0.04,,2013-05-15 05:42:00,
2013-05-14 22:52:00,47.0,34.0,30.05,North,-999,-999.0,-999.0,61,0.00,,,0.04,,2013-05-15 05:52:00,
2013-05-14 23:02:00,46.0,34.0,30.05,North,-999,-999.0,-999.0,62,0.00,,,0.04,,2013-05-15 06:02:00,
2013-05-14 23:11:00,46.0,34.0,30.05,North,-999,-999.0,-999.0,62,0.00,,,0.04,,2013-05-15 06:11:00,
2013-05-14 23:21:00,46.0,34.0,30.05,North,-999,-999.0,-999.0,63,0.00,,,0.04,,2013-05-15 06:21:00,
2013-05-14 23:31:00,46.0,34.0,30.05,North,-999,-999.0,-999.0,63,0.00,,,0.04,,2013-05-15 06:31:00,
2013-05-14 23:41:00,46.0,34.0,30.05,North,-999,-999.0,-999.0,63,0.00,,,0.04,,2013-05-15 06:41:00,
2013-05-14 23:52:00,46.0,34.0,30.05,North,-999,-999.0,-999.0,63,0.00,,,0.04,,2013-05-15 06:52:00,